Statistiken

Seite 170 von 285 |< · · [167] [168] [169] [170] [171] [172] [173] · · >|

Die am häufigsten bewerteten Zitate

Nr. Zitat Pkte. Bew. Aufr. Mails Kom. Datum
8451 Pfingstenregen, Weinsegen. ... -0.4286 7 2284 0 2 26.08.05 00:00
8452 Besser bedient werden als dienen. ... -0.4286 7 2173 0 0 26.08.05 00:00
8453 Die Weiber nehmen Drescher für Tröster. ... -0.4286 7 2060 1 0 26.08.05 00:00
8454 Wo kein Laster ist, da ist keine Tugend. ... -0.4286 7 1983 0 0 26.08.05 00:00
8455 Wohin man pfarrt, da wird man verscharrt. ... -0.4286 7 1903 0 3 26.08.05 00:00
8456 Ich feiere keinem Heiligen, dem ich nicht gefastet. ... -0.4286 7 1900 0 0 26.08.05 00:00
8457 Gottes Allmacht ist allzeit ausgenommen. ... -0.4286 7 1868 0 0 26.08.05 00:00
8458 Auch die besten Händel sind nichts nütz. ... -0.4286 7 1819 0 0 26.08.05 00:00
8459 Aus Liebe frißt der Wolf das Schaf. ... -0.5714 7 6631 1 0 26.08.05 00:00
8460 Willfahren macht Freunde, Wahrsagen Feinde. ... -0.5714 7 5112 2 0 26.08.05 00:00
8461 Glück ist der Freunde Sommer und Ernte, Unglück ... -0.5714 7 4765 0 0 26.08.05 00:00
8462 Schick dich in die Zeit. ... -0.5714 7 4123 0 0 26.08.05 00:00
8463 Wenig reden altert die Frauen. ... -0.5714 7 3706 0 0 26.08.05 00:00
8464 Gewalt geht vor Recht (Das klagt manch armer Knecht). ... -0.5714 7 3529 0 0 26.08.05 00:00
8465 Heirat der Alten ist ein Ladschreiben an den Totengräber. ... -0.5714 7 3193 0 0 26.08.05 00:00
8466 Hast du Geld, so tritt herfür, Hast du ... -0.5714 7 3152 0 0 26.08.05 00:00
8467 Worte tun's nicht. ... -0.5714 7 3110 0 5 26.08.05 00:00
8468 Wenn die Bauern Eis sch--, dann muß es kalt sein. ... -0.5714 7 2963 1 2 26.08.05 00:00
8469 Man nimmt den Mann beim Wort und den Hund beim Schwanz. ... -0.5714 7 2937 0 4 26.08.05 00:00
8470 Gottes Freund, der Pfaffen Feind. ... -0.5714 7 2865 0 0 26.08.05 00:00
8471 Zu grober Lüge soll man pfeifen. ... -0.5714 7 2828 0 0 26.08.05 00:00
8472 Alle sieben Jahr ein Flohjahr, Alle sieben ... -0.5714 7 2810 1 0 26.08.05 00:00
8473 Ein toller Hund läuft sieben Jahr. ... -0.5714 7 2775 0 0 26.08.05 00:00
8474 Groß Herr, groß Recht, klein Knecht, klein Recht. ... -0.5714 7 2730 0 0 26.08.05 00:00
8475 Gut Land, feige Leute. ... -0.5714 7 2694 0 0 26.08.05 00:00
8476 Eine Schwieger und Sohnsfrau sollte man nicht ... -0.5714 7 2680 0 0 26.08.05 00:00
8477 Regenten und Wächter müssen wenig schlafen. ... -0.5714 7 2679 0 1 26.08.05 00:00
8478 Wer den Papst zum Vetter hat, ist bald Kardinal. ... -0.5714 7 2609 2 0 26.08.05 00:00
8479 Was ein Wolf gebissen oder ein Pfaffe, das heilt hart. ... -0.5714 7 2565 0 3 26.08.05 00:00
8480 Es ist nicht alle Tage Jahrmarkt. ... -0.5714 7 2502 0 0 26.08.05 00:00
8481 Dick tun ist mein Reichtum, zwei Pfennige mein Vermögen. ... -0.5714 7 2500 1 0 26.08.05 00:00
8482 Ungarn ist der Kirchhof der Deutschen. ... -0.5714 7 2445 0 0 26.08.05 00:00
8483 Junger Spieler, alter Bettler. ... -0.5714 7 2435 1 0 26.08.05 00:00
8484 Armut lehrt Künste. ... -0.5714 7 2410 0 0 26.08.05 00:00
8485 Ist der Januar nicht naß, Füllt sich des Winzers Faß. ... -0.5714 7 2406 0 0 26.08.05 00:00
8486 An kurzen Rossen und langen Stieren ist ... -0.5714 7 2398 0 0 26.08.05 00:00
8487 Das Recht ist des Stärksten. ... -0.5714 7 2385 0 0 26.08.05 00:00
8488 Wer baß mag, der feiert nicht. ... -0.5714 7 2373 1 3 26.08.05 00:00
8489 Ein Kranker ist gut schlagen. ... -0.5714 7 2205 3 0 26.08.05 00:00
8490 Der Arme muß in den Sack. ... -0.5714 7 2084 0 0 26.08.05 00:00
8491 Kirchengut hat Adlersfedern (-Klauen). ... -0.5714 7 1702 0 0 26.08.05 00:00
8492 Ich will dir auch einmal einen Stein in den Garten werfen. ... -0.7143 7 7332 0 1 26.08.05 00:00
8493 Angst macht auch den Alten laufen. ... -0.7143 7 5889 0 10 26.08.05 00:00
8494 Hitzige Tränen trocknen bald. ... -0.7143 7 3708 0 0 26.08.05 00:00
8495 Er sammelt die Asche und verstreut das Mehl. ... -0.7143 7 3560 0 0 26.08.05 00:00
8496 Wer sein Haus will haben sauber, Hüte sich ... -0.7143 7 3477 1 0 26.08.05 00:00
8497 Schwäbisch ist gäbisch, bayerisch ist gar nichts. ... -0.7143 7 3361 1 0 26.08.05 00:00
8498 In kleiner Haut stecken auch Leute. ... -0.7143 7 3343 0 0 26.08.05 00:00
8499 Wenig unternehmen gibt viel Frieden. ... -0.7143 7 3308 0 16 26.08.05 00:00
8500 Völlerei bringt Buhlerei, Buhlerei bringt Buberei. ... -0.7143 7 3232 0 0 26.08.05 00:00

[Favoriten] [Punkte] [Bewertungen] [Aufrufe] [Mails] [Kommentare] [Datum]

Seite 170 von 285 |< · < · [1] [2] [3] [4] [5] [6] [7] [8] [9] [10] [11] [12] [13] [14] [15] [16] [17] [18] [19] [20] [21] [22] [23] [24] [25] [26] [27] [28] [29] [30] [31] [32] [33] [34] [35] [36] [37] [38] [39] [40] [41] [42] [43] [44] [45] [46] [47] [48] [49] [50] [51] [52] [53] [54] [55] [56] [57] [58] [59] [60] [61] [62] [63] [64] [65] [66] [67] [68] [69] [70] [71] [72] [73] [74] [75] [76] [77] [78] [79] [80] [81] [82] [83] [84] [85] [86] [87] [88] [89] [90] [91] [92] [93] [94] [95] [96] [97] [98] [99] [100] [101] [102] [103] [104] [105] [106] [107] [108] [109] [110] [111] [112] [113] [114] [115] [116] [117] [118] [119] [120] [121] [122] [123] [124] [125] [126] [127] [128] [129] [130] [131] [132] [133] [134] [135] [136] [137] [138] [139] [140] [141] [142] [143] [144] [145] [146] [147] [148] [149] [150] [151] [152] [153] [154] [155] [156] [157] [158] [159] [160] [161] [162] [163] [164] [165] [166] [167] [168] [169] [170] [171] [172] [173] [174] [175] [176] [177] [178] [179] [180] [181] [182] [183] [184] [185] [186] [187] [188] [189] [190] [191] [192] [193] [194] [195] [196] [197] [198] [199] [200] [201] [202] [203] [204] [205] [206] [207] [208] [209] [210] [211] [212] [213] [214] [215] [216] [217] [218] [219] [220] [221] [222] [223] [224] [225] [226] [227] [228] [229] [230] [231] [232] [233] [234] [235] [236] [237] [238] [239] [240] [241] [242] [243] [244] [245] [246] [247] [248] [249] [250] [251] [252] [253] [254] [255] [256] [257] [258] [259] [260] [261] [262] [263] [264] [265] [266] [267] [268] [269] [270] [271] [272] [273] [274] [275] [276] [277] [278] [279] [280] [281] [282] [283] [284] [285] · > · >|

Zuletzt gesucht